GFSSW_850_spd_051.txt.gz
Wind_Speed
7 7 7 8 9 9 10 10 10 10 10 11 11 9 8 6 1 2 3 7 6 6 4 5 9 10 10 15 15 15 8 9 8 6 19 10 16 14 11 11 11 8 9 17 18
8 8 9 9 10 10 11 11 11 11 11 10 11 10 8 3 3 8 6 7 7 7 8 11 11 11 15 13 14 7 4 9 12 6 17 7 19 6 14 9 10 11 13 17 18
9 9 10 10 11 11 12 12 12 11 11 11 10 10 8 1 6 6 3 4 6 11 6 10 12 13 16 15 12 11 6 7 8 7 4 16 13 7 13 8 11 13 16 16 17
11 11 11 11 12 12 12 12 12 12 12 11 10 9 6 5 3 1 2 5 7 9 9 10 12 15 21 12 4 12 4 5 10 8 5 3 15 12 7 10 10 15 17 17 16
11 12 12 12 12 13 13 13 12 12 12 11 10 9 4 7 0 1 0 4 3 3 10 14 17 18 21 6 5 15 5 5 6 5 2 4 5 9 5 8 11 16 17 16 15
12 12 13 14 13 13 14 13 13 13 11 11 10 9 6 13 1 1 2 3 3 6 8 11 14 11 17 8 9 3 3 5 6 9 5 11 11 8 12 11 14 16 16 15 14
12 13 13 14 14 13 14 14 13 13 11 10 9 8 8 9 3 5 4 5 6 5 7 6 6 12 13 9 6 8 12 12 12 11 9 10 1 14 14 15 16 17 16 15 14
13 13 13 14 14 14 13 13 13 12 11 9 8 6 10 4 7 8 6 7 8 8 8 6 6 12 11 5 9 15 18 14 14 9 7 8 16 46 17 16 16 17 17 17 15
13 13 14 14 13 13 13 13 12 12 10 8 5 4 10 3 6 8 9 9 8 10 10 9 8 16 14 13 17 15 3 15 13 3 4 9 4 13 12 14 15 16 17 17 16
12 13 13 13 13 12 12 12 11 10 10 8 8 7 11 6 5 6 8 10 9 9 10 12 14 14 14 16 16 13 12 23 2 5 8 11 10 9 8 12 15 17 17 17 18
12 12 12 12 12 11 9 7 9 5 10 14 3 12 2 5 6 8 9 10 11 12 13 16 13 17 21 18 21 14 11 8 2 5 9 12 12 8 14 8 12 15 19 18 18
12 12 11 11 10 8 5 7 5 5 10 13 16 15 10 5 7 10 11 11 13 14 15 7 15 19 20 11 10 10 10 10 6 2 9 7 10 10 2 7 8 15 17 20 19
11 10 9 9 7 4 3 3 5 6 9 12 15 16 15 14 14 13 14 15 10 13 14 14 10 20 6 10 11 14 15 12 9 8 11 8 12 9 9 7 7 9 13 20 22
11 10 8 5 1 4 4 4 5 4 6 13 11 11 13 13 18 15 14 11 10 11 13 12 14 5 9 15 15 16 16 15 5 9 13 8 7 12 13 11 11 10 12 15 21
11 10 7 6 6 3 3 4 3 2 6 7 12 5 11 17 3 19 15 14 12 12 6 14 13 10 14 17 14 16 4 8 12 13 15 9 7 6 7 7 7 2 1 13 21
12 11 7 5 8 7 4 4 2 7 10 8 8 11 14 20 15 8 16 15 12 10 10 19 4 13 17 15 11 14 7 7 10 13 13 12 11 7 3 8 4 9 4 12 18
12 11 9 8 3 5 5 5 7 10 4 9 11 12 16 16 20 15 16 17 13 11 13 14 12 12 13 7 13 11 13 9 11 12 12 4 3 8 6 8 4 5 8 11 15
12 11 9 10 9 8 6 9 11 12 21 3 2 9 10 14 18 18 15 16 19 16 13 12 14 17 13 18 12 15 17 11 12 8 5 8 5 4 9 6 5 7 9 14 13
10 5 4 5 10 10 12 11 12 12 5 4 11 13 15 8 12 19 19 18 18 18 12 6 15 17 16 15 17 16 16 18 11 11 9 8 11 10 8 8 6 10 12 12 12
3 6 5 6 10 10 10 16 10 4 7 6 15 12 14 15 14 16 17 17 17 16 16 9 10 11 14 9 10 13 7 12 8 11 12 8 2 8 9 10 10 10 10 11 10
3 7 3 5 8 14 11 17 14 3 5 9 11 8 13 4 8 15 12 12 15 14 13 16 8 11 11 13 15 11 12 10 15 7 6 6 6 13 9 12 11 9 10 10 10
5 4 4 8 11 17 12 13 3 7 9 9 6 9 9 5 10 15 13 6 15 14 18 18 8 13 13 15 20 20 16 16 10 12 7 11 1 9 11 9 11 10 8 6 5
5 3 4 10 6 8 8 4 9 8 11 7 9 5 1 6 4 10 9 9 1 13 11 14 10 12 16 10 8 12 16 10 12 11 12 7 6 10 12 12 9 11 8 6 6
5 5 7 12 11 10 8 10 12 11 13 9 9 8 7 10 9 6 8 5 7 12 6 8 12 13 12 15 13 18 18 18 16 13 11 13 11 5 8 12 10 10 9 8 6
6 1 4 6 9 7 1 3 9 9 11 8 11 15 14 10 11 11 13 9 9 8 9 9 12 16 19 18 14 10 15 18 17 18 17 2 15 4 9 11 11 10 9 7 6
6 5 7 2 0 7 6 6 6 3 5 10 13 13 17 15 14 8 9 6 10 13 11 16 13 15 18 18 19 13 15 7 14 19 22 8 14 4 11 11 10 8 7 6 5
3 5 6 11 8 8 5 5 1 3 9 13 8 8 7 10 10 14 7 12 13 9 8 12 13 14 17 18 19 18 16 14 11 11 11 11 20 18 14 10 9 7 6 5 3

GFSSW_850_spd_057.txt.gz
Wind_Speed
9 9 10 9 10 11 11 11 11 12 12 12 13 13 14 12 9 9 7 7 9 11 13 9 9 9 5 10 4 6 3 3 3 8 2 26 14 22 22 26 23 15 31 31 27
9 10 10 11 11 11 11 12 12 13 13 13 13 14 15 15 11 12 7 9 10 14 12 7 8 10 7 11 6 6 4 5 4 9 3 15 28 15 20 21 26 30 29 27 25
10 11 11 12 12 12 13 13 13 13 13 13 13 13 15 15 10 8 10 11 13 12 10 10 9 13 17 7 2 2 6 8 19 16 24 32 35 18 5 11 23 26 26 27 21
12 12 13 13 14 14 14 14 14 13 13 13 13 12 15 12 3 3 5 11 11 9 10 11 10 12 9 5 9 6 24 27 14 20 12 33 13 12 15 20 27 27 28 26 22
13 13 14 14 15 15 15 15 15 14 13 13 13 13 13 7 16 4 3 5 6 7 10 8 16 16 9 8 18 11 27 33 30 21 28 28 37 5 14 18 23 25 26 24 22
14 14 14 15 16 16 16 15 15 14 13 13 13 13 13 7 5 5 7 2 1 6 6 11 15 20 24 19 10 25 26 13 17 16 29 24 10 22 3 13 16 21 21 21 21
15 15 15 15 16 16 17 16 15 14 13 12 12 13 14 18 3 4 5 4 6 13 18 18 18 19 18 11 20 24 10 8 4 13 9 31 3 14 20 12 5 13 18 21 20
15 16 16 16 16 16 17 16 15 13 12 12 11 12 12 8 7 11 10 13 13 11 14 16 12 12 14 23 25 15 5 2 6 3 15 10 7 14 22 20 12 7 22 25 22
15 16 16 16 16 16 16 16 15 13 11 12 9 6 13 6 17 18 16 15 14 16 10 13 13 9 19 7 7 8 5 11 11 23 14 4 5 21 24 19 17 22 20 26 25
15 16 16 15 15 16 14 14 13 13 13 12 12 8 12 15 13 12 11 15 15 9 15 14 11 5 5 3 5 4 6 13 18 16 17 11 10 10 30 31 27 24 20 27 25
16 16 15 14 13 14 10 9 8 2 7 9 8 9 22 9 7 6 9 10 10 12 7 15 4 7 11 12 6 8 10 11 7 17 6 15 14 15 24 24 19 12 19 20 25
16 16 15 13 11 9 8 3 7 8 13 19 25 28 30 19 6 15 13 18 13 8 12 7 7 13 13 16 12 7 8 9 13 23 4 15 17 10 17 14 14 27 39 34 28
15 15 15 12 9 4 5 6 10 9 7 16 25 24 27 21 15 21 16 20 11 9 11 9 14 15 16 12 12 6 15 9 18 8 18 7 8 8 1 25 32 44 45 22 39
14 14 13 9 5 3 4 3 7 7 3 7 9 20 28 26 20 23 22 17 9 13 10 9 17 13 10 10 10 5 7 10 11 15 9 6 4 4 7 4 15 28 26 31 41
14 13 9 10 7 6 3 0 8 3 3 7 17 12 23 25 21 20 24 20 10 10 7 10 10 9 7 7 4 5 10 8 6 11 2 5 4 2 4 5 6 6 13 36 38
14 14 10 10 11 4 8 8 6 0 6 6 5 6 8 19 20 25 21 20 13 11 11 9 24 5 9 8 7 8 8 7 5 2 4 6 2 4 6 9 5 14 23 39 41
15 14 13 13 8 1 1 4 0 4 5 6 7 10 11 9 11 14 12 8 7 3 6 10 10 8 6 6 5 5 2 3 3 4 5 6 7 7 3 5 7 11 24 32 37
15 15 13 14 13 4 1 1 5 7 13 15 14 11 13 11 11 14 7 8 9 9 4 7 8 8 8 9 9 9 8 6 6 3 4 8 3 3 2 7 8 14 20 30 37
14 12 13 8 14 10 3 4 6 6 9 10 11 11 7 10 10 12 12 9 10 11 8 3 9 8 13 8 7 10 4 10 2 3 2 4 6 3 17 14 9 6 17 28 46
16 12 14 5 7 11 4 5 6 15 15 8 7 8 6 7 5 8 11 13 12 12 14 10 6 10 13 12 10 8 5 2 3 3 5 1 0 4 4 4 11 22 13 22 31
13 5 7 20 13 11 4 7 10 23 24 5 7 9 9 9 13 14 10 8 15 14 10 10 7 16 6 5 7 2 5 3 3 4 5 3 6 7 10 8 15 12 28 18 23
4 4 14 14 8 7 7 6 13 20 4 2 5 8 7 9 10 11 11 4 14 19 11 8 7 6 8 9 8 8 6 7 5 9 2 5 6 9 8 14 12 23 45 13 12
4 10 8 15 4 7 12 16 23 18 5 2 4 7 8 6 6 9 9 15 14 9 5 3 3 0 10 9 7 7 8 5 3 3 4 5 3 14 25 25 21 32 44 15 16
5 3 5 15 18 8 8 11 14 6 4 12 8 12 5 7 6 8 9 10 26 4 6 5 2 4 7 8 2 8 7 4 2 3 5 6 8 7 21 23 33 48 9 11 12
5 5 9 4 7 8 9 10 12 3 8 3 4 7 6 4 7 8 9 9 19 15 5 3 1 4 9 9 9 8 8 5 9 7 4 7 7 10 13 21 30 19 20 11 12
6 6 12 14 3 9 3 4 8 9 5 7 6 7 8 6 6 10 8 7 3 9 9 6 3 1 6 9 11 14 14 5 9 3 5 7 1 5 11 14 20 17 8 6 14
11 9 7 11 6 1 4 6 9 10 8 8 7 6 8 9 17 19 17 13 8 4 5 5 3 2 5 7 9 7 8 9 5 4 9 5 10 7 6 9 22 16 11 8 14

GFSSW_850_spd_060.txt.gz
Wind_Speed
9 9 10 10 11 12 12 12 12 12 13 14 15 15 14 12 10 9 11 7 4 6 7 6 2 2 7 8 11 5 4 2 4 3 3 17 10 21 12 27 12 11 28 26 22
9 10 10 11 11 12 12 12 13 13 13 14 15 16 16 14 11 11 8 8 5 7 11 5 3 6 6 4 9 5 4 5 10 8 6 12 12 8 11 13 18 22 29 28 25
10 11 11 12 12 12 12 13 13 13 13 14 15 16 16 14 10 1 5 6 7 9 11 8 3 6 6 6 5 5 6 8 12 22 22 7 4 2 6 5 23 31 37 32 28
12 12 12 13 13 13 13 13 13 13 14 14 14 15 15 11 1 2 1 5 9 11 11 6 2 4 2 3 12 5 12 11 6 22 23 12 11 11 10 14 21 30 34 33 30
13 14 14 14 15 15 14 14 14 13 14 14 14 14 14 7 7 5 5 6 7 8 8 7 5 5 2 3 12 4 15 20 16 30 34 24 14 7 9 18 28 29 31 30 28
14 14 15 15 16 16 16 15 15 13 13 14 13 13 12 5 5 3 5 8 3 3 2 7 5 13 13 4 7 9 25 28 15 28 29 20 12 9 13 30 34 34 33 28 28
15 15 16 16 17 17 16 16 15 14 13 13 13 13 15 17 4 9 8 7 4 8 12 11 13 13 8 4 5 11 7 7 23 16 4 15 6 3 25 30 33 37 30 28 26
16 16 16 17 17 17 17 16 15 14 12 13 12 13 11 8 8 15 13 9 8 14 15 11 11 17 4 14 9 7 6 5 6 13 15 5 6 8 29 32 28 28 30 28 26
16 17 17 17 17 17 16 16 15 13 13 12 11 7 13 6 11 14 14 15 14 14 15 15 12 7 7 3 6 6 1 4 5 9 6 7 7 8 24 24 8 18 11 24 27
16 17 17 17 17 17 14 14 11 11 10 10 12 7 10 6 6 9 16 17 19 16 11 18 6 2 4 5 4 6 3 5 3 9 5 7 10 6 24 17 10 17 14 22 28
17 17 17 16 15 15 11 6 4 1 11 7 6 11 19 14 9 11 8 11 19 14 1 6 2 6 12 9 6 4 3 4 5 5 2 7 6 10 14 21 21 29 31 20 31
16 17 17 14 13 11 10 3 6 8 12 18 21 26 29 26 18 19 10 9 2 5 6 6 5 12 9 8 7 7 3 7 4 6 3 9 15 8 15 25 28 33 35 29 31
16 17 17 13 11 8 6 3 6 11 5 13 19 22 30 16 22 27 13 17 7 5 6 7 14 4 5 10 6 6 8 5 9 4 4 3 7 5 4 19 24 28 36 32 39
15 15 16 12 6 7 1 6 4 8 4 8 7 15 23 26 13 23 24 16 6 11 7 7 18 9 9 9 9 5 13 11 16 3 7 7 6 6 4 11 13 22 27 34 38
15 15 12 13 8 6 3 1 2 2 2 5 6 7 17 18 5 6 26 21 9 8 7 12 6 5 4 9 7 9 9 13 9 6 6 5 2 6 3 6 11 18 29 29 40
15 16 13 14 13 6 6 2 1 5 6 6 3 6 6 14 14 15 6 22 12 8 3 9 17 4 7 6 5 5 4 8 6 5 2 5 5 4 7 19 6 10 27 31 38
15 15 17 14 7 3 2 1 4 4 5 5 4 4 5 8 5 7 5 3 7 3 5 6 9 6 6 4 7 7 7 3 4 5 5 3 1 8 5 7 9 17 30 31 40
16 16 17 16 11 10 2 4 4 7 8 4 6 7 4 5 7 8 5 5 5 4 3 3 8 3 5 7 8 5 8 6 5 3 6 3 5 3 5 7 9 9 23 31 35
17 15 17 7 14 12 4 2 8 6 4 8 8 3 4 6 9 7 10 8 9 10 9 6 8 2 4 3 9 8 2 6 7 1 4 4 6 6 5 5 17 23 27 33 36
18 15 12 8 15 16 3 5 5 6 7 6 3 3 5 7 6 5 0 6 9 12 9 7 4 7 14 2 7 9 5 0 3 3 4 5 4 5 3 4 20 18 19 18 30
12 8 7 14 15 8 3 6 6 22 12 2 3 2 2 2 1 2 3 8 8 10 14 7 6 17 2 3 7 1 2 4 5 5 5 3 6 6 5 5 12 17 19 21 29
6 2 12 19 5 3 3 5 4 14 21 7 5 4 3 2 4 2 3 0 22 10 9 9 7 8 12 4 5 6 7 6 5 7 2 4 5 7 6 8 11 20 24 20 23
8 6 20 20 3 3 6 5 11 12 9 6 2 5 4 2 2 1 6 13 26 7 2 5 1 3 9 7 6 3 4 2 1 4 6 6 5 3 7 3 8 15 8 6 16
4 3 5 21 11 4 2 6 4 13 15 12 1 3 6 6 4 3 8 7 17 12 8 3 3 7 6 5 4 4 5 4 6 2 2 5 4 5 9 7 8 16 15 12 8
3 5 2 3 7 6 4 5 7 5 6 3 4 2 3 2 7 4 7 7 8 20 9 4 1 2 5 6 3 2 6 9 2 6 4 10 11 10 16 13 23 27 34 13 3
3 4 8 13 15 5 7 5 4 4 1 3 2 4 6 2 2 2 4 3 2 7 6 6 3 5 5 6 6 3 8 7 8 3 6 13 2 7 17 13 9 14 15 17 14
4 5 4 7 7 3 3 5 6 1 3 10 4 4 7 3 7 6 6 7 4 2 5 3 3 4 4 5 6 4 4 4 4 5 8 6 9 18 14 17 25 23 17 22 28

GFSSW_850_spd_063.txt.gz
Wind_Speed
10 10 10 11 12 12 12 12 12 13 14 14 15 14 13 12 11 13 11 5 3 2 2 1 5 7 8 7 8 2 4 2 4 4 3 15 7 14 5 18 8 9 13 20 25
11 11 11 12 12 12 12 12 12 13 13 14 15 15 14 15 12 10 8 8 6 3 2 4 6 6 5 5 6 4 3 3 3 8 7 12 11 16 8 13 1 10 19 22 25
13 13 13 13 13 13 13 13 13 13 14 15 16 15 14 14 8 3 3 6 5 6 7 6 7 7 6 5 7 5 6 4 12 17 13 7 6 5 17 4 16 28 26 26 26
14 14 14 15 14 14 14 14 14 14 14 14 15 15 13 11 2 3 2 3 7 9 9 6 6 3 3 3 4 3 9 11 12 27 23 7 7 6 18 9 23 27 29 28 29
15 16 16 16 16 15 15 15 14 14 14 14 15 15 13 8 5 6 3 5 6 9 8 6 7 3 2 5 8 6 5 14 21 24 25 19 10 5 14 12 21 30 30 30 29
16 16 17 17 18 17 17 16 15 15 14 14 15 15 11 5 5 5 6 4 6 4 2 5 2 6 10 6 2 8 14 8 19 26 19 10 2 1 4 24 27 30 34 32 32
17 17 17 18 19 19 18 17 16 16 14 14 14 14 16 16 7 9 9 7 4 6 7 6 8 8 7 5 11 9 5 8 7 13 6 7 6 8 12 31 31 31 32 33 32
17 18 18 18 19 20 19 18 17 17 15 15 14 13 11 10 11 15 14 11 8 11 13 13 15 12 5 5 8 6 4 4 3 7 7 9 10 8 22 31 29 31 32 37 35
17 18 18 18 19 20 19 18 18 17 16 14 12 8 11 6 10 12 18 15 7 12 14 17 13 6 1 4 5 5 3 3 1 13 6 5 7 6 27 29 24 29 35 37 35
17 17 17 18 19 19 17 16 14 11 8 9 12 7 11 3 2 7 12 16 13 13 14 5 4 3 4 4 4 5 5 3 6 9 11 12 11 7 25 27 26 31 38 36 36
17 17 17 16 17 17 14 6 4 3 11 9 8 11 14 12 11 11 7 14 17 12 4 4 4 5 9 7 5 3 4 8 6 6 6 11 9 10 27 22 22 32 35 38 37
17 17 17 15 14 13 8 4 7 10 13 13 19 25 29 26 13 14 7 7 5 5 3 4 4 9 3 4 5 6 7 12 8 6 7 13 8 6 15 30 39 37 37 37 34
17 17 17 14 13 10 5 1 9 6 5 12 16 20 30 17 18 22 10 7 5 4 4 6 8 3 3 3 5 5 7 9 10 5 3 2 7 2 5 6 25 24 29 33 38
17 17 16 13 7 7 3 3 5 2 4 8 6 11 17 15 7 22 22 15 2 9 5 6 5 8 6 7 8 4 11 16 9 3 5 4 5 6 3 1 7 18 19 32 36
17 17 15 12 10 6 5 3 1 1 3 5 5 2 9 18 19 9 25 21 9 6 6 11 3 1 4 8 7 11 7 15 10 3 5 3 3 8 3 5 10 14 22 25 29
17 17 16 14 13 7 6 2 3 5 6 7 2 2 5 6 7 5 6 17 11 5 3 9 3 5 7 5 6 3 4 8 6 5 1 7 5 6 4 8 5 12 25 23 27
18 17 18 14 7 5 3 3 4 4 5 6 2 4 3 2 2 6 5 5 6 3 6 4 6 4 5 5 3 5 6 2 2 2 6 4 3 9 7 8 9 13 21 30 28
18 18 17 16 10 10 3 4 4 5 7 6 5 5 2 1 4 4 3 4 3 4 3 5 8 5 4 6 5 2 7 6 5 3 5 4 4 5 3 12 14 19 9 8 15
18 17 17 10 12 13 8 3 8 7 4 7 8 3 5 5 4 3 7 7 8 10 9 6 9 5 5 5 6 2 2 5 7 3 2 3 6 6 6 11 12 20 25 25 25
19 16 12 8 12 18 4 4 4 6 5 5 3 2 4 5 5 3 7 1 6 12 5 7 3 6 5 4 2 6 6 2 3 4 4 5 4 5 4 4 4 10 20 20 20
15 9 2 8 19 12 4 6 5 23 3 3 3 4 4 2 2 2 2 3 0 5 9 6 4 7 3 3 4 2 2 6 6 4 6 1 6 6 6 4 4 7 21 23 22
7 2 7 15 4 2 3 6 5 9 1 5 4 8 6 3 3 2 2 2 15 6 9 9 6 6 11 5 1 2 5 6 5 5 1 4 6 4 7 9 8 10 17 16 18
11 4 10 17 2 2 4 4 7 7 9 5 4 4 1 4 1 2 3 8 14 5 3 6 1 2 10 7 5 2 2 5 5 4 5 6 6 4 7 10 17 18 25 19 19
4 2 4 12 5 5 0 5 5 10 13 8 6 1 2 3 3 2 4 4 11 9 10 6 3 6 8 7 4 3 2 3 4 4 5 6 3 7 9 11 18 26 16 25 30
2 2 1 2 6 4 4 4 6 5 6 16 3 5 5 2 3 2 3 5 5 15 8 4 3 1 3 3 3 4 4 6 4 4 3 4 7 9 17 16 24 21 19 22 25
1 3 6 5 10 3 6 5 8 10 4 0 3 3 3 5 4 3 1 0 1 6 6 5 1 1 2 2 5 1 4 3 4 4 3 4 5 7 12 17 17 23 19 24 15
3 3 2 5 5 2 3 5 4 3 2 4 4 6 6 3 6 6 8 6 4 1 2 3 2 3 3 2 0 5 6 5 5 6 5 3 8 2 5 11 26 27 16 23 18

GFSSW_850_spd_069.txt.gz
Wind_Speed
11 11 11 11 11 12 13 13 14 15 15 14 14 14 14 12 10 9 8 8 10 7 7 9 12 9 6 3 2 1 2 2 2 5 1 9 7 8 4 6 8 8 4 9 18
12 12 13 13 13 12 13 14 14 15 15 15 15 15 15 14 10 7 7 9 10 10 10 8 11 9 2 3 3 3 2 2 2 4 4 15 10 13 6 10 7 8 6 17 21
15 15 15 15 15 15 14 14 14 15 16 15 15 16 15 14 2 2 9 13 10 10 4 7 5 7 3 3 4 2 3 5 6 10 9 11 13 11 7 8 12 13 14 24 24
16 17 16 17 17 17 16 15 15 15 15 15 16 15 15 9 1 3 8 12 12 11 8 7 10 5 3 3 5 4 9 7 6 9 10 9 9 8 16 3 6 12 18 25 25
17 17 18 18 18 18 18 17 16 16 16 15 15 14 15 8 4 3 6 11 11 11 10 9 10 5 3 3 3 8 6 7 10 7 8 11 13 7 16 5 8 15 21 23 23
19 19 19 19 19 19 19 18 18 17 17 15 15 13 13 5 4 4 7 7 7 7 8 10 4 6 5 2 4 4 11 16 6 6 8 11 8 8 7 12 14 20 23 21 22
20 20 20 20 21 20 19 18 19 18 18 16 15 13 15 16 7 7 8 7 6 4 4 4 5 4 2 3 3 5 7 8 5 4 2 8 9 13 10 16 18 20 22 23 24
21 21 21 21 21 22 19 19 19 18 18 16 14 12 10 9 9 15 11 10 9 8 5 6 8 7 5 3 1 3 2 5 2 4 1 7 8 7 16 18 21 22 21 21 24
21 21 21 21 21 21 19 19 18 17 16 14 11 8 9 8 12 13 14 14 11 10 9 9 7 4 4 3 3 1 4 3 3 4 3 4 10 6 11 18 20 23 24 22 22
22 21 21 21 21 20 17 16 15 13 11 9 11 5 13 4 6 9 10 12 12 9 4 4 3 3 2 4 9 2 2 3 6 2 4 6 17 9 7 16 21 21 24 23 23
20 22 21 20 20 19 16 9 6 5 8 8 3 7 7 5 6 7 10 10 11 7 6 1 5 7 9 6 2 2 4 7 10 3 4 12 18 20 8 16 19 18 23 23 26
20 21 21 20 18 16 11 2 7 5 10 12 21 28 29 25 8 9 11 9 8 10 5 4 10 7 3 3 4 5 8 12 11 6 6 11 15 16 14 18 25 24 26 28 27
19 20 20 19 17 11 5 4 4 8 5 10 16 19 21 17 18 24 12 10 6 8 10 11 5 4 7 5 6 7 10 12 11 0 9 3 10 9 11 15 17 19 23 28 30
20 19 20 18 11 7 3 4 8 3 3 6 5 8 11 12 8 29 21 11 4 12 8 6 4 9 6 9 8 11 10 16 10 4 4 2 5 5 8 14 13 18 20 24 23
20 20 18 16 15 8 3 5 7 3 3 2 4 1 5 11 1 11 24 19 12 9 7 8 7 9 10 11 10 9 3 4 4 7 2 6 5 4 2 10 12 9 11 21 25
20 20 19 17 15 8 7 5 5 3 8 3 2 4 4 9 4 3 8 11 10 8 3 7 2 4 8 6 13 5 1 3 2 4 7 4 5 7 4 2 10 4 7 10 18
19 20 20 17 13 7 5 3 4 6 2 1 1 1 3 4 7 8 11 12 11 9 13 6 10 5 6 7 5 5 4 3 6 6 8 3 4 8 7 5 9 16 12 9 15
21 21 18 16 11 9 6 4 9 3 9 3 4 8 3 2 4 9 8 10 5 6 6 11 9 11 9 13 7 8 5 5 9 7 7 3 4 4 1 3 8 10 6 8 14
22 19 14 8 12 14 6 10 6 6 2 6 6 4 1 1 2 5 10 11 14 13 10 7 6 3 6 5 7 6 5 2 5 2 3 2 4 10 6 5 6 7 3 6 7
23 19 6 7 9 18 4 8 3 3 3 2 2 2 2 4 1 2 6 1 4 11 4 7 5 4 2 5 5 5 9 3 1 4 6 4 4 6 9 7 5 8 5 6 8
18 8 8 2 13 9 7 6 7 9 5 2 2 4 3 3 3 2 3 3 1 2 8 8 7 5 4 7 9 4 4 3 2 2 5 8 4 6 5 5 7 8 6 9 13
6 2 2 15 3 0 3 4 3 5 3 5 3 5 7 6 4 2 2 1 0 6 8 7 6 9 14 3 0 2 3 5 4 5 1 3 5 2 5 6 7 10 7 9 8
14 3 8 2 2 3 2 3 4 7 7 3 4 7 2 4 3 3 1 2 5 4 6 7 4 7 6 4 3 5 5 4 4 2 7 4 3 6 5 5 9 12 6 9 11
5 1 1 6 3 1 1 3 4 4 8 8 7 8 4 5 3 3 1 1 3 4 2 5 2 4 11 10 3 5 7 7 4 5 7 5 2 9 13 12 12 11 9 8 11
3 2 2 2 5 4 2 3 9 5 4 5 5 14 9 5 3 4 2 3 3 4 2 0 3 3 2 3 3 3 10 10 7 2 4 6 5 7 13 13 16 11 11 14 14
3 4 6 6 5 3 3 3 5 5 6 5 8 9 15 5 5 6 3 1 1 2 2 1 1 1 3 4 6 10 6 6 4 4 1 1 3 11 11 14 14 11 9 12 13
5 5 3 5 2 2 3 3 4 4 7 12 10 5 8 9 4 1 3 2 1 3 4 3 2 1 3 3 6 6 6 3 7 8 3 2 5 14 12 12 12 14 10 11 12

GFSSW_850_spd_072.txt.gz
Wind_Speed
13 13 13 13 13 13 13 13 13 13 12 12 13 13 12 11 11 10 10 8 10 8 4 10 8 7 7 5 6 5 4 3 6 4 7 6 4 5 3 7 5 5 2 9 18
14 14 14 14 14 14 14 14 15 14 14 13 13 13 13 13 11 8 11 10 11 10 8 12 10 9 4 4 4 7 4 5 5 4 2 6 6 8 5 7 7 8 4 13 18
15 15 16 16 16 16 16 16 16 16 15 14 14 13 13 13 3 1 7 11 11 10 11 9 7 6 9 4 4 1 6 8 5 3 4 5 9 8 6 6 6 11 12 18 18
15 16 17 18 18 17 17 16 17 17 16 15 15 14 13 8 2 2 5 11 14 12 12 8 8 7 7 7 1 9 4 7 8 6 5 7 7 9 10 5 3 9 17 21 20
16 16 17 17 19 19 18 18 18 18 17 16 15 15 12 6 3 3 8 11 14 12 12 10 10 9 9 5 11 11 12 10 8 8 10 9 11 12 10 9 6 13 19 22 20
17 17 17 19 19 19 19 19 19 18 17 16 15 15 10 9 6 7 10 13 12 13 11 13 7 10 9 10 9 14 13 17 11 10 8 12 11 10 7 12 12 17 19 20 21
18 19 19 18 19 19 18 18 19 19 17 15 15 14 11 12 7 9 12 12 13 10 9 10 11 10 2 9 8 10 15 15 2 5 1 10 11 14 14 12 14 18 20 20 20
19 19 19 20 20 20 19 18 19 18 17 15 13 11 9 12 9 12 14 13 14 11 9 6 7 10 12 5 9 10 10 14 9 0 3 7 5 3 7 14 16 17 19 21 22
20 20 19 20 20 20 18 18 18 17 16 13 10 6 10 9 13 13 17 11 13 10 9 8 6 11 7 12 13 12 14 11 7 0 1 8 11 7 3 11 15 16 18 20 21
22 22 21 20 20 19 16 16 15 14 13 10 10 6 13 5 6 7 15 15 11 11 9 9 9 11 12 12 14 16 11 11 11 1 7 10 12 12 9 9 13 15 17 21 23
22 23 22 21 19 18 16 8 7 5 8 14 1 10 2 4 7 9 11 14 14 16 15 14 12 15 18 16 17 10 11 16 14 4 11 15 13 12 12 11 14 15 17 22 26
21 23 23 21 18 14 9 5 2 5 10 14 21 23 20 8 5 12 12 16 16 18 18 11 17 18 6 11 11 16 16 19 16 9 10 13 12 14 14 13 13 16 17 21 22
20 21 22 20 17 8 6 3 4 8 8 11 16 18 19 17 21 19 18 20 16 19 17 20 18 9 11 13 15 17 18 17 17 11 10 14 16 15 11 7 9 12 13 19 22
21 21 21 18 8 12 3 5 6 4 6 9 9 12 13 13 11 25 23 19 14 16 18 17 20 11 12 15 15 17 14 14 17 17 15 10 12 7 7 9 5 3 9 15 21
20 20 18 16 17 7 6 6 8 2 6 5 10 5 8 17 5 14 26 26 20 16 10 16 13 14 19 20 14 15 6 9 12 14 16 16 9 14 4 9 7 5 4 7 17
19 20 18 17 16 8 8 6 2 7 11 4 5 10 12 17 15 6 13 23 25 21 16 20 8 10 16 15 14 6 8 10 9 13 15 20 12 14 11 2 6 2 9 10 7
19 20 19 16 7 9 5 3 6 10 3 7 5 8 8 13 16 17 14 19 17 19 19 17 17 14 11 11 12 10 13 10 11 11 14 5 8 13 12 6 8 9 12 9 1
21 20 17 14 12 9 5 8 12 6 16 4 4 8 11 7 13 20 19 19 23 24 15 18 17 20 16 20 15 18 16 11 13 12 12 7 9 11 2 5 6 7 7 3 5
22 18 12 9 9 12 10 14 9 13 4 7 11 10 10 7 6 11 21 20 20 21 20 12 18 4 14 17 18 13 10 15 13 10 9 9 6 7 13 10 12 6 3 6 9
23 16 5 6 6 12 10 17 12 3 7 5 8 2 6 2 8 8 14 14 20 21 24 14 12 10 10 9 8 14 8 10 10 16 10 10 7 9 9 9 5 2 5 8 11
17 7 6 4 9 10 10 16 15 10 6 6 4 5 5 3 8 6 7 5 9 12 18 15 10 10 9 13 14 12 13 12 11 5 9 9 7 4 4 7 8 5 6 9 12
5 4 4 12 8 6 11 10 3 12 12 10 7 7 9 9 8 5 6 1 1 8 16 19 11 14 14 6 4 9 16 20 12 14 12 10 11 7 5 4 5 4 5 8 10
10 5 3 1 5 7 7 10 11 12 12 10 12 9 8 7 5 4 2 4 3 6 7 10 13 13 17 9 7 11 13 11 10 8 12 10 7 5 8 8 5 1 6 8 9
5 3 4 8 5 5 3 8 11 8 13 16 16 14 13 12 10 7 5 3 1 2 1 5 7 14 15 17 15 19 17 14 14 11 13 13 6 9 10 11 11 2 4 8 11
3 1 3 3 9 9 4 8 11 9 10 8 12 18 15 15 14 13 12 6 4 3 3 5 7 9 15 9 8 12 19 15 16 18 10 10 8 8 9 12 10 6 4 8 11
5 5 5 10 6 6 3 5 11 9 11 11 13 14 15 17 15 10 10 6 4 2 1 1 2 4 7 7 11 12 10 13 14 6 6 5 11 8 6 9 12 12 2 8 11
5 5 5 3 5 4 2 6 8 7 9 15 10 11 11 17 15 6 4 1 2 3 2 1 1 5 7 5 9 11 3 9 6 3 3 7 7 6 7 9 14 12 9 2 7

GFSSW_850_spd_078.txt.gz
Wind_Speed
13 14 14 15 15 16 16 16 17 16 17 16 17 17 17 17 15 15 12 12 11 8 6 5 7 11 15 17 15 13 7 9 13 11 9 6 6 12 14 5 10 7 12 21 20
14 14 15 15 16 17 17 17 17 17 18 17 17 19 18 19 18 18 14 14 15 14 9 10 9 9 14 20 14 9 10 20 7 6 12 21 2 13 32 25 10 11 18 21 22
16 17 17 16 16 16 17 18 18 18 18 18 18 18 19 20 18 11 13 13 15 13 11 12 10 12 15 21 17 14 8 8 7 8 11 21 11 16 32 15 15 18 20 21 22
17 18 19 19 19 19 18 18 18 19 18 18 19 18 19 17 7 1 5 11 13 14 13 14 15 16 17 20 17 7 15 11 13 2 6 7 5 6 2 10 11 23 24 24 23
19 19 20 21 21 21 21 20 19 19 18 18 18 19 17 11 18 12 8 10 13 17 14 16 17 19 15 20 22 11 13 13 11 17 3 5 12 5 4 7 10 22 22 23 23
20 20 20 22 23 23 23 22 22 20 18 18 18 18 15 18 9 14 11 7 13 17 14 17 16 18 17 19 17 23 21 17 20 20 13 8 11 10 11 8 13 18 20 22 21
20 21 22 22 22 23 23 23 24 22 20 17 16 17 14 23 8 12 10 10 14 16 16 17 17 19 21 20 22 19 18 16 21 19 11 2 12 0 8 9 14 17 18 21 21
23 22 23 23 24 25 23 23 22 23 21 18 16 13 13 17 15 19 14 15 15 16 16 15 16 16 21 22 24 20 19 16 21 15 7 7 6 3 19 17 17 19 18 20 21
25 25 24 24 25 26 26 23 21 22 21 18 15 14 22 10 21 19 18 20 17 18 18 16 16 18 19 17 16 16 17 20 20 11 8 10 5 10 20 20 18 19 22 22 22
25 26 26 25 25 25 24 23 18 19 19 15 17 11 24 23 22 19 22 22 22 18 18 20 19 14 15 14 15 19 19 21 16 9 11 15 12 4 15 15 20 20 25 25 26
24 25 26 25 24 23 25 18 11 7 7 19 16 24 23 23 19 24 24 23 24 22 18 22 15 16 21 20 21 18 20 21 18 16 15 11 12 12 17 16 16 22 27 27 27
25 26 26 24 22 16 12 10 14 11 17 21 27 34 33 24 19 21 20 27 25 21 21 19 20 21 21 21 20 18 19 17 19 15 16 16 19 11 18 16 11 16 23 31 26
26 27 26 24 17 7 13 16 13 13 15 31 31 30 31 32 23 23 28 27 19 23 22 22 21 22 23 17 18 18 15 17 16 17 16 16 19 11 17 20 22 15 10 25 27
25 25 25 27 9 8 13 7 11 13 9 22 27 41 37 37 32 30 28 31 24 25 24 22 24 23 21 21 16 20 15 19 18 15 12 14 14 15 17 14 15 9 9 9 26
24 25 23 20 20 12 12 15 14 9 7 13 23 38 39 41 38 32 35 32 26 27 22 24 22 20 20 19 18 17 15 18 16 15 16 16 10 14 5 16 9 10 15 3 4
24 24 26 15 19 12 14 14 10 7 14 12 27 14 27 34 35 39 32 37 32 26 24 26 29 21 19 17 20 13 16 18 13 15 13 16 15 14 15 7 10 11 8 9 8
25 22 24 20 11 10 10 9 6 10 11 22 23 8 16 19 26 28 29 27 24 23 23 26 27 23 22 14 14 16 17 12 13 12 13 19 17 12 9 14 13 12 12 7 4
26 23 16 13 8 7 9 9 13 11 21 24 25 16 21 21 22 24 26 26 28 28 20 21 22 25 24 18 14 19 18 13 14 14 15 15 13 12 19 13 22 9 6 6 4
27 18 14 12 6 5 8 11 13 15 23 17 25 17 13 15 12 23 27 26 29 24 23 20 26 22 26 22 18 19 16 16 18 19 14 13 6 7 9 6 7 9 17 12 13
28 16 8 7 4 4 9 14 20 21 25 18 17 12 14 15 19 17 17 23 27 27 25 23 23 26 23 24 24 21 15 14 12 16 16 15 13 6 15 10 17 15 17 14 12
16 10 6 3 3 8 9 14 17 25 25 13 15 18 20 22 14 11 11 18 20 26 25 25 19 22 22 19 20 15 17 17 18 12 12 13 3 9 11 10 13 14 17 17 16
10 5 4 3 8 10 11 18 20 23 22 13 14 16 20 20 14 9 21 14 37 17 25 26 18 15 25 15 24 17 17 20 12 13 13 13 7 10 3 5 18 17 18 19 18
9 16 8 5 7 8 14 17 18 15 13 15 16 19 17 17 17 17 19 3 22 18 11 10 13 12 18 18 13 17 21 17 17 13 18 13 3 8 7 7 12 18 17 19 20
7 4 8 9 18 13 15 14 9 13 13 16 17 20 18 17 16 17 19 18 3 15 16 9 9 9 13 17 13 13 21 20 16 9 14 16 13 6 4 9 1 16 17 18 18
7 5 13 6 7 12 13 10 12 11 14 9 12 14 16 17 17 19 20 18 15 3 7 5 9 13 16 21 20 17 14 20 18 19 16 7 9 17 15 16 10 10 14 15 16
8 18 19 20 18 15 13 11 15 12 8 12 12 15 15 15 17 19 19 18 13 5 15 18 10 11 17 16 18 16 17 18 20 22 20 16 14 21 19 16 12 1 10 14 14
12 12 13 15 15 12 4 7 18 14 12 8 15 14 20 15 21 20 26 27 18 4 3 9 11 8 15 18 18 14 18 22 11 8 11 16 15 13 14 10 18 5 6 9 8

GFSSW_850_spd_084.txt.gz
Wind_Speed
17 19 19 19 19 19 19 19 19 18 17 17 17 18 19 19 18 19 20 13 11 7 9 5 5 11 13 13 20 10 2 8 14 9 5 13 7 11 11 17 11 16 20 26 31
18 18 18 19 20 20 20 20 20 20 20 19 18 18 19 21 22 16 5 7 11 9 9 12 10 7 12 11 10 10 4 11 17 20 11 14 17 17 9 12 7 16 13 37 34
18 18 19 20 20 20 21 21 20 19 20 21 22 20 20 19 20 2 4 1 2 7 10 13 9 10 18 19 10 7 8 11 19 24 22 22 13 16 18 5 17 33 39 38 35
19 20 20 21 21 21 22 22 21 21 21 20 20 21 21 16 5 4 7 8 6 9 14 15 12 5 4 3 13 6 14 11 13 8 7 9 15 8 24 15 25 26 33 40 37
21 22 23 23 23 22 22 22 22 21 20 21 21 20 17 11 23 17 17 8 10 13 16 17 13 11 5 6 17 5 6 22 29 30 9 20 18 16 26 15 29 32 37 39 35
21 22 22 23 25 25 24 23 22 22 22 21 20 18 15 11 13 8 11 14 14 17 15 17 13 10 13 9 5 16 15 22 28 27 21 13 8 12 23 22 34 38 38 36 38
23 23 24 24 25 26 26 25 23 21 23 22 22 20 18 31 11 12 17 16 15 15 14 16 18 14 12 9 12 16 10 14 19 13 10 16 8 8 26 34 38 40 40 36 39
27 27 27 27 27 28 28 26 24 22 22 22 22 21 15 29 25 24 26 27 23 17 15 12 13 17 14 13 11 7 3 6 8 10 16 6 14 9 32 38 35 37 41 40 43
25 27 28 28 29 29 29 27 23 20 22 21 18 13 14 19 22 24 27 32 21 18 16 13 16 21 14 3 6 7 6 12 15 14 8 13 11 7 30 35 33 37 40 43 45
25 27 28 28 29 29 28 24 14 12 8 7 6 7 17 15 14 14 20 27 24 17 17 18 10 3 2 4 6 6 7 7 11 20 12 13 10 5 27 31 36 37 38 41 44
27 29 30 29 27 26 22 19 23 5 26 23 31 27 32 31 32 31 20 22 26 20 8 16 1 7 12 10 9 8 9 13 18 22 4 13 9 7 16 23 25 32 36 39 47
28 29 31 30 26 18 13 14 19 21 18 31 33 37 38 36 28 40 26 17 11 16 6 1 10 16 13 9 11 12 13 18 19 18 7 8 8 9 8 11 26 33 35 41 42
27 28 30 31 20 10 17 9 15 22 8 24 26 25 36 34 40 43 30 18 10 14 14 13 20 11 10 13 13 13 8 15 14 19 3 1 8 7 8 5 14 21 42 46 45
26 27 29 32 10 21 8 11 12 17 5 8 5 6 6 13 11 45 45 22 7 21 17 14 17 11 12 14 11 10 17 16 16 6 6 4 5 7 8 10 7 23 26 35 42
26 26 27 28 27 22 12 12 10 3 4 5 6 8 25 10 12 18 48 25 11 7 8 16 14 9 10 18 12 12 16 17 17 5 3 7 3 8 4 8 6 8 23 38 45
25 24 29 25 23 10 10 12 6 5 6 6 8 16 27 25 8 11 5 19 15 11 3 12 20 14 19 20 12 13 6 1 4 4 3 5 4 12 5 6 5 5 20 34 39
23 23 26 24 15 11 11 8 5 2 6 6 17 16 19 15 7 6 6 3 5 4 4 5 6 11 14 8 11 3 5 5 3 3 7 4 1 14 11 7 8 10 22 35 45
24 26 20 13 1 4 1 4 2 4 7 10 9 16 6 16 15 5 7 9 5 5 5 6 11 8 13 10 11 8 8 6 7 4 7 6 6 15 11 24 30 25 30 31 36
25 21 5 5 3 4 4 3 6 4 4 9 17 4 11 18 6 10 6 8 9 7 9 5 13 6 11 16 8 10 4 9 6 2 3 3 9 10 8 1 12 14 20 28 31
26 18 6 5 4 5 4 5 5 5 9 10 6 4 12 9 10 10 7 6 8 3 4 1 4 11 19 11 17 8 4 1 2 3 7 5 5 6 7 4 8 8 18 24 28
20 10 5 2 7 3 2 6 7 18 16 3 8 7 6 4 4 7 7 8 8 12 3 6 6 13 8 9 12 2 3 2 3 5 6 2 6 4 9 3 8 6 18 29 32
8 3 8 10 1 1 2 5 7 21 33 9 6 4 1 4 5 5 5 5 24 9 6 4 2 5 18 16 8 11 11 7 6 7 3 5 5 4 6 4 13 15 15 15 18
15 6 9 11 2 3 7 7 9 10 12 4 5 1 2 3 4 5 6 14 18 6 6 5 2 5 8 9 4 5 6 6 5 3 8 6 6 3 4 9 17 24 24 18 12
5 3 4 9 5 4 5 7 11 18 8 14 4 6 6 6 2 5 8 8 21 11 14 17 1 5 4 10 8 5 3 7 7 2 5 7 5 3 2 11 9 22 28 24 14
2 3 6 3 5 8 2 5 6 8 9 11 9 13 3 5 7 8 6 12 19 7 10 4 4 1 7 5 8 5 4 7 11 3 3 8 11 4 8 11 14 26 24 23 21
3 5 8 8 12 7 5 5 8 7 4 10 6 16 7 4 4 8 5 3 4 19 4 2 7 4 6 12 13 8 15 12 10 6 3 2 2 6 6 5 22 30 30 27 27
2 5 4 6 5 3 2 11 17 15 13 14 6 5 5 8 21 23 22 23 14 6 5 4 2 1 5 6 6 9 8 9 7 7 3 2 4 8 10 3 4 3 11 11 10

GFSSW_850_spd_087.txt.gz
Wind_Speed
18 18 18 18 18 18 18 18 17 17 18 19 19 19 19 19 17 18 18 11 8 10 8 8 12 13 14 7 9 3 2 3 4 4 6 7 5 15 9 22 13 16 13 9 31
18 19 20 21 21 20 19 19 19 19 19 19 19 18 20 22 20 14 2 4 9 10 10 9 9 15 7 6 7 7 4 7 8 9 9 15 10 16 9 14 8 18 13 25 32
17 18 19 20 21 22 22 21 20 20 20 20 19 19 19 19 19 3 7 2 5 6 7 6 4 13 12 10 9 8 5 8 16 18 17 18 16 10 11 5 15 27 30 39 37
19 19 19 20 20 21 21 22 22 21 21 21 21 19 18 15 5 8 4 7 8 10 12 11 10 8 6 7 10 4 10 17 11 14 15 8 26 8 20 17 27 27 37 43 40
21 21 22 23 23 23 22 21 21 22 21 21 21 21 17 9 20 16 21 16 11 14 15 17 14 12 5 5 5 7 5 8 20 29 15 14 18 8 21 14 17 29 38 42 42
22 23 24 24 25 25 25 24 22 22 21 20 21 20 15 8 11 9 10 4 9 14 18 20 13 16 7 5 3 7 11 12 20 30 8 6 7 11 22 18 20 34 38 40 42
22 24 25 26 27 28 27 26 23 23 21 20 20 20 18 32 16 18 17 20 20 17 16 18 17 11 3 4 4 7 8 9 9 4 2 11 3 10 26 29 30 36 39 40 40
24 25 26 27 28 28 27 26 24 22 22 20 20 20 16 28 28 27 26 30 26 24 24 14 10 12 10 8 3 2 4 5 4 10 7 11 9 19 19 36 32 36 38 42 42
25 27 28 29 31 31 28 25 18 14 11 12 10 10 13 16 20 21 16 22 24 25 23 15 8 8 7 1 4 5 4 5 12 7 1 5 13 18 12 38 34 36 36 40 39
25 26 27 27 29 29 24 19 15 2 11 7 5 6 11 14 15 11 15 16 18 19 20 13 8 3 3 4 7 7 5 5 7 6 8 12 12 9 19 23 30 34 34 36 39
25 27 28 27 31 23 17 15 16 4 18 12 27 28 40 27 32 31 17 14 18 11 7 9 5 7 11 10 4 5 4 7 9 10 2 12 12 20 14 20 23 24 28 36 45
25 26 28 27 29 13 20 8 12 11 18 31 22 27 31 34 21 34 25 8 6 10 5 5 9 8 8 5 7 5 5 9 8 14 6 10 14 11 6 23 24 29 31 38 46
26 27 29 26 18 16 12 13 13 16 5 15 10 12 11 6 14 36 21 7 5 5 7 16 10 8 5 6 6 6 6 11 10 10 6 7 7 7 6 11 21 29 38 42 47
26 27 28 27 10 21 4 11 11 10 5 7 7 3 9 14 8 20 26 23 7 9 9 13 11 9 5 8 7 8 9 12 11 2 9 5 7 6 6 8 7 21 33 41 46
25 25 23 25 23 17 9 12 8 1 3 3 5 9 35 6 18 7 9 21 16 9 4 8 9 9 13 20 6 13 4 8 9 6 1 3 2 7 4 9 10 10 20 36 39
23 21 25 24 19 11 12 10 3 5 4 6 7 13 13 6 6 7 3 12 16 5 3 9 16 8 12 10 9 8 3 6 5 2 3 6 7 5 5 8 6 7 21 21 31
21 20 23 20 13 9 7 5 5 3 5 7 6 13 8 10 9 4 1 4 5 5 3 5 6 4 7 3 2 4 6 5 5 3 8 7 3 8 4 7 12 15 27 24 26
21 20 15 8 3 4 3 5 2 2 5 5 6 11 5 11 8 8 6 3 3 4 2 4 8 6 3 8 9 6 9 6 5 6 10 1 6 7 8 15 21 28 31 24 25
22 15 3 3 3 2 1 4 5 4 4 7 10 4 6 6 2 9 8 8 7 2 2 4 8 5 3 6 9 6 5 7 4 2 2 4 7 10 7 12 8 17 21 25 27
23 13 5 1 2 2 5 3 3 4 7 2 3 2 6 7 8 9 10 5 11 6 1 6 2 3 5 3 6 7 6 1 1 2 4 5 5 6 11 10 10 4 14 20 26
20 6 2 4 3 2 2 5 6 13 10 4 6 4 7 4 2 5 6 7 7 9 6 2 5 8 3 6 8 0 3 2 6 4 5 4 7 7 6 6 6 7 16 15 17
9 3 1 10 2 2 1 4 8 13 19 7 5 7 5 3 4 2 3 4 17 7 6 3 4 3 8 10 8 7 9 6 5 6 3 3 7 3 5 3 10 16 16 19 15
13 5 3 12 0 2 5 5 6 4 7 6 4 3 3 2 4 2 6 10 18 7 5 4 3 4 10 8 7 3 5 6 6 3 6 5 8 4 5 7 12 25 22 20 18
5 3 2 4 2 2 4 5 5 13 6 6 4 6 6 4 3 4 7 5 22 12 7 6 3 4 4 9 6 7 6 8 8 4 3 6 8 2 5 6 5 10 36 27 21
2 2 2 3 2 4 3 3 6 6 3 8 5 5 2 3 7 6 4 8 14 3 4 3 2 4 8 14 9 10 13 9 7 6 5 4 5 5 4 8 13 15 14 24 28
1 4 6 6 9 5 3 4 3 7 4 7 4 9 4 4 4 6 2 3 6 7 7 3 3 2 6 11 3 9 17 8 8 3 3 6 4 6 13 21 20 25 31 28 9
1 4 3 4 4 1 2 3 4 10 1 13 5 3 4 4 12 22 22 19 13 4 2 3 3 8 13 9 6 4 10 7 3 6 5 2 2 4 13 14 19 27 35 36 24

GFSSW_850_spd_093.txt.gz
Wind_Speed
17 17 17 17 17 17 17 17 18 17 17 17 16 15 15 16 18 20 19 10 9 15 20 17 18 15 12 5 5 2 3 2 3 4 7 6 4 4 5 9 10 13 7 4 28
17 18 18 18 18 18 18 18 18 19 18 18 18 18 17 17 19 17 5 3 7 16 22 21 20 18 6 5 4 4 3 4 3 7 8 16 13 11 10 14 11 9 10 7 29
18 18 18 18 19 19 19 19 19 18 18 18 18 18 17 17 16 3 10 5 5 14 19 18 12 9 5 4 8 7 5 6 8 14 15 14 18 7 13 11 17 20 16 16 29
18 18 19 20 21 21 21 20 20 20 19 17 17 17 17 13 5 6 4 7 2 12 17 20 16 9 6 7 8 6 14 16 8 9 7 11 14 5 18 28 10 15 22 22 33
19 20 21 21 23 23 23 22 20 20 21 18 16 16 15 8 13 12 15 11 10 17 20 19 15 9 7 6 9 12 15 14 16 15 12 13 14 10 18 17 10 7 19 24 33
22 23 24 24 25 26 25 23 21 19 18 18 15 15 12 8 10 10 10 4 8 18 19 18 8 11 7 10 11 9 13 20 14 15 11 8 5 4 6 12 14 15 19 29 35
24 25 24 24 25 24 23 19 18 16 14 12 12 13 15 20 10 8 7 6 5 8 12 13 16 10 0 6 7 11 13 17 17 11 12 7 8 6 7 4 14 24 32 29 35
23 23 22 22 24 23 21 17 13 13 12 11 7 8 9 9 11 15 20 22 19 14 15 16 12 13 9 10 7 4 4 12 12 4 2 4 17 9 5 7 12 22 24 26 34
24 23 24 24 24 25 20 17 12 9 6 8 2 4 6 5 5 7 6 8 8 8 12 6 9 10 5 7 8 6 13 13 13 1 3 3 9 15 6 12 16 21 23 24 26
24 25 24 24 22 20 20 16 10 3 2 3 1 1 2 6 10 9 11 12 9 3 4 8 8 8 7 9 13 12 13 11 12 8 5 12 15 17 18 15 21 19 21 28 27
24 26 24 22 21 18 19 7 6 2 4 1 6 6 11 13 13 5 4 9 11 3 5 8 8 15 18 18 19 16 12 12 5 9 11 17 15 14 25 22 21 17 22 28 37
24 25 23 19 15 17 12 10 11 7 9 3 4 8 10 13 7 5 5 8 9 13 8 6 16 11 16 19 15 15 16 13 9 11 6 12 20 19 16 12 17 14 20 27 23
24 23 21 20 7 16 7 11 13 12 3 6 6 5 6 10 6 4 3 6 7 11 14 16 10 11 16 17 15 18 19 12 11 8 9 11 11 8 13 15 15 15 13 16 26
21 22 21 21 6 14 4 10 14 6 2 7 3 3 8 13 5 13 4 5 3 7 10 11 14 15 15 17 16 18 15 16 9 8 11 2 13 11 13 10 10 17 10 16 21
20 21 20 18 14 8 6 10 9 1 2 11 5 7 19 1 10 3 6 4 6 5 5 7 7 14 16 20 17 16 7 10 10 9 4 13 6 9 8 12 12 10 14 16 19
19 20 21 17 9 4 6 7 0 3 1 4 6 9 11 4 4 9 1 2 2 4 9 10 7 5 9 11 17 14 8 2 2 4 7 14 8 7 7 7 6 9 13 16 20
20 19 17 9 6 5 5 1 2 1 2 6 5 9 8 5 8 8 7 3 3 5 3 6 15 13 11 12 6 10 8 5 6 5 9 4 6 7 16 15 16 14 13 14 17
19 17 4 7 8 6 4 1 1 1 2 3 5 8 3 7 3 9 8 7 5 2 5 4 4 9 9 12 7 12 12 6 5 7 11 3 7 3 9 16 16 16 18 22 21
18 10 1 4 7 7 1 2 2 1 2 7 6 2 3 3 4 6 5 4 5 10 6 4 4 3 8 3 8 3 4 10 3 3 5 5 6 10 7 11 6 10 19 21 22
17 6 2 1 5 6 1 2 2 3 2 1 2 2 3 4 5 6 6 3 8 11 6 1 6 5 2 4 5 4 7 4 4 6 13 13 16 11 16 15 16 14 17 17 16
13 2 4 1 5 3 2 0 3 5 5 4 2 3 4 3 4 3 4 5 10 15 9 4 3 5 3 3 6 4 4 2 4 1 12 14 13 4 9 10 12 11 14 14 9
5 2 2 2 1 2 1 1 4 4 1 3 3 4 3 3 4 3 3 3 14 15 8 3 3 5 6 4 5 1 4 2 6 6 8 8 17 1 6 6 8 11 12 9 6
10 4 2 2 2 2 1 2 3 3 3 2 2 1 0 2 3 2 4 7 9 12 8 8 2 6 6 4 3 3 5 6 8 6 15 12 13 4 6 7 10 11 11 9 6
5 1 2 2 3 2 0 1 3 3 3 3 3 2 3 2 2 4 6 5 15 11 6 3 2 4 7 5 4 5 6 6 8 7 12 13 14 4 7 8 8 11 11 10 9
3 1 0 1 2 1 1 1 2 3 2 4 2 3 3 3 4 3 5 11 10 4 5 6 5 4 10 13 9 7 7 1 3 9 12 16 10 2 4 6 8 8 10 13 11
1 1 1 0 2 2 3 4 4 2 2 1 3 10 5 5 3 8 8 8 8 5 5 3 5 7 14 8 9 12 1 5 6 5 7 12 6 3 7 3 6 12 13 14 12
2 2 0 1 1 3 3 3 5 2 4 6 6 8 8 6 11 22 23 26 20 12 7 4 4 5 12 5 12 7 2 2 3 3 6 7 5 4 5 6 11 13 12 14 14

GFSSW_850_spd_096.txt.gz
Wind_Speed
16 16 17 17 17 17 17 17 16 16 15 15 15 14 15 16 17 17 17 9 10 14 13 16 13 11 12 7 9 7 6 5 1 3 4 6 9 8 4 6 8 9 4 3 18
17 18 18 19 19 19 18 18 19 18 17 16 16 16 15 16 18 19 7 7 7 16 21 23 19 17 10 8 6 9 8 6 4 5 8 10 11 13 7 7 11 11 9 12 22
19 19 19 20 20 20 20 21 21 20 19 17 15 16 15 14 14 3 5 2 5 12 16 14 11 14 13 10 11 6 13 8 11 11 14 14 14 11 9 10 13 16 14 19 24
19 20 21 21 21 21 22 22 22 21 20 18 15 15 13 8 5 4 5 2 2 14 17 15 16 16 13 11 12 11 16 15 20 17 19 15 19 15 9 14 1 12 19 25 27
19 20 21 21 21 21 21 20 20 20 19 16 15 14 10 7 12 12 10 9 9 15 19 17 16 15 13 9 12 15 20 20 20 17 16 19 19 18 20 10 8 11 23 25 26
22 23 24 23 22 22 20 22 21 18 15 12 12 12 7 12 9 10 9 8 12 15 17 17 10 11 13 15 15 16 17 19 19 22 17 19 20 15 17 4 12 13 20 23 26
23 23 22 22 21 19 19 16 17 15 12 9 8 8 8 12 6 5 2 9 10 13 12 15 13 12 5 12 12 15 17 18 21 20 19 17 21 17 16 3 9 13 16 20 24
21 21 20 20 21 19 17 18 15 11 8 5 4 3 5 6 6 8 12 13 13 13 14 14 14 16 19 16 16 16 13 14 16 13 13 11 17 14 3 8 8 10 14 19 25
20 21 22 21 21 19 19 19 9 6 2 3 1 2 2 3 3 4 8 10 10 10 12 9 11 17 14 15 16 15 15 18 15 11 6 12 18 16 7 12 16 18 15 19 24
21 23 22 20 21 16 17 11 7 4 3 3 2 3 1 3 5 5 5 9 5 6 8 13 12 13 15 15 18 20 19 19 17 17 14 15 19 15 24 21 21 21 19 16 25
22 23 21 18 18 17 16 8 5 1 3 3 3 4 3 10 3 0 5 13 17 12 14 16 14 20 22 21 22 23 23 23 19 10 17 15 20 17 18 26 23 25 19 19 26
23 23 18 18 9 15 13 7 8 5 7 3 4 5 7 7 2 1 3 7 12 15 13 11 16 20 22 19 22 24 24 24 22 16 20 18 21 16 17 25 21 26 19 19 18
22 21 17 19 4 12 8 9 11 8 6 1 3 4 5 4 4 1 4 3 10 13 14 16 18 4 12 18 23 25 23 23 24 20 18 17 22 21 16 18 20 21 20 17 20
21 21 19 18 6 10 2 11 12 4 5 3 2 1 4 7 3 3 3 6 4 8 7 12 14 16 16 17 18 21 20 24 22 21 17 17 14 17 13 17 14 18 17 17 18
20 22 20 16 11 3 6 9 6 2 5 3 2 2 8 4 7 3 3 4 8 9 6 9 6 11 15 18 16 19 19 22 20 20 19 23 12 13 13 14 15 17 18 15 16
20 20 18 12 5 4 5 6 2 5 2 2 3 4 3 1 2 4 2 5 5 8 9 14 13 9 13 9 12 14 15 15 14 14 15 16 18 15 13 8 13 17 15 14 11
19 18 12 6 2 6 4 1 5 4 3 3 3 6 6 3 1 5 5 5 5 6 5 14 7 9 14 14 14 10 14 12 13 13 13 15 13 8 10 14 8 12 15 10 9
19 16 4 4 6 5 2 5 5 2 1 2 4 8 4 6 1 5 3 3 8 7 10 7 10 4 9 15 14 7 14 10 14 10 9 20 10 11 14 10 6 5 8 11 16
18 12 4 4 5 6 6 6 3 1 2 5 6 6 2 0 4 4 3 4 6 10 7 9 6 4 8 12 11 6 6 9 10 12 10 13 22 17 13 12 7 13 12 12 13
17 9 5 5 5 4 6 3 2 1 3 3 3 2 3 3 5 4 2 5 6 10 8 5 10 7 6 6 10 10 4 8 6 11 14 9 17 13 14 17 10 14 13 14 13
12 6 6 4 4 7 6 1 3 1 3 3 1 3 3 4 6 6 2 1 11 12 13 9 7 13 9 7 9 7 12 11 13 8 15 11 11 11 12 10 13 10 13 13 12
5 4 4 2 7 3 5 1 0 3 3 2 3 3 3 4 7 4 5 5 11 16 11 7 7 10 17 4 5 6 5 9 10 11 13 14 17 10 1 6 7 9 10 10 6
7 6 5 4 5 6 3 5 4 4 2 3 4 2 1 4 5 3 7 6 7 14 9 9 7 10 14 11 9 4 3 7 8 10 16 16 14 4 2 3 7 10 11 8 5
4 3 3 4 4 7 4 6 5 3 5 3 5 6 6 9 6 7 12 7 11 16 4 7 11 12 14 17 13 11 7 5 9 11 16 13 16 19 9 10 10 11 10 11 6
3 1 2 1 4 6 5 2 7 6 4 5 5 6 6 8 11 13 9 14 16 11 7 5 12 16 15 17 17 17 15 15 13 13 12 14 17 19 9 10 11 8 6 9 12
4 4 2 5 4 6 5 8 12 6 5 6 8 4 6 8 9 11 14 14 16 14 10 13 12 14 16 20 21 14 16 13 14 13 13 15 17 7 4 5 6 7 12 11 11
4 4 4 3 5 6 8 8 6 3 8 9 4 7 9 6 12 20 23 24 21 19 17 15 11 12 16 16 17 14 17 8 8 8 10 14 10 7 3 5 10 11 11 15 16